Omaha, IA

9:46 AM CDT on October 21, 2017 (GMT -0500)
Eppley Airfield

Weather History for KOMA - July, 2013

Change the Weather History Date:

Tuesday, July 16, 2013

  Actual Average Record
Temperature  
Mean Temperature 82 °F 77 °F  
Max Temperature 92 °F 88 °F 106 °F (1936)
Min Temperature 71 °F 67 °F 53 °F (2014)
Degree Days  
Heating Degree Days 0 0  
Month to date heating degree days 0 0  
Since 1 June heating degree days 16 17  
Since 1 July heating degree days 0 0  
Cooling Degree Days 17 12  
Month to date cooling degree days 210 188  
Year to date cooling degree days 541 500  
Since 1 June cooling degree days 445 418  
Growing Degree Days 31 (Base 50)    
Moisture  
Dew Point 66 °F    
Average Humidity 66    
Maximum Humidity 90    
Minimum Humidity 41    
Precipitation  
Precipitation 0.00 in 0.12 in 2.08 in (1900)
Month to date precipitation 0.35 1.98  
Year to date precipitation 19.43 17.44  
Snow  
Snow 0.00 in 0.00 in - ()
Month to date snowfall 0.0 0.0  
Since 1 July snowfall 0.0 0.0  
Snow Depth 0.00 in    
Sea Level Pressure  
Sea Level Pressure 30.20 in    
Wind  
Wind Speed 6 mph (SSE)    
Max Wind Speed 15 mph    
Max Gust Speed 21 mph    
Visibility 10 miles    
Events      
T = Trace of Precipitation, MM = Missing Value Source: NWS Daily Summary

Daily Weather History Graph

Daily Weather History Graph

Search for Another Location

Airport or City:

Trip Planner

Search our weather history database for the weather conditions in past years. The results will help you decide how hot, cold, wet, or windy it might be!

Date:

Astronomy

Jul. 16, 2013 Rise Set
Actual Time 6:04 AM CDT 8:54 PM CDT
Civil Twilight 5:31 AM CDT 9:26 PM CDT
Nautical Twilight 4:50 AM CDT 10:08 PM CDT
Astronomical Twilight 4:03 AM CDT 10:55 PM CDT
Moon 2:35 PM CDT (7/16) 12:36 AM CDT (7/16)
Length of Visible Light 15h 55m
Length of Day
14h 49m
First Quarter, 56% of the Moon is Illuminated
Jul 16
First Quarter
Jul 22
Full
Jul 29
Last Quarter
Aug 6
New
Aug 14
First Quarter

Hourly Weather History & Observations

Time (CDT) Temp. Heat Index Dew Point Humidity Pressure Visibility Wind Dir Wind Speed Gust Speed Precip Events Conditions
12:52 AM 77.0 °F - 68.0 °F 74% 30.16 in 10.0 mi Calm Calm - N/A   Partly Cloudy
1:52 AM 75.9 °F - 68.0 °F 76% 30.16 in 10.0 mi ESE 3.5 mph - N/A   Partly Cloudy
2:52 AM 75.9 °F - 68.0 °F 76% 30.16 in 10.0 mi South 6.9 mph - N/A   Clear
3:52 AM 73.0 °F - 66.9 °F 81% 30.16 in 10.0 mi SSE 4.6 mph - N/A   Partly Cloudy
4:52 AM 72.0 °F - 66.9 °F 84% 30.17 in 10.0 mi SSE 6.9 mph - N/A   Partly Cloudy
5:52 AM 72.0 °F - 66.9 °F 84% 30.18 in 10.0 mi SSE 5.8 mph - N/A   Partly Cloudy
6:52 AM 72.0 °F - 68.0 °F 87% 30.19 in 10.0 mi Calm Calm - N/A   Clear
7:52 AM 75.0 °F - 68.0 °F 79% 30.21 in 10.0 mi SSE 3.5 mph - N/A   Clear
8:52 AM 79.0 °F - 66.9 °F 66% 30.23 in 10.0 mi SSE 5.8 mph - N/A   Clear
9:52 AM 81.0 °F 82.7 °F 64.9 °F 58% 30.24 in 10.0 mi Calm Calm - N/A   Clear
10:52 AM 84.0 °F 84.9 °F 63.0 °F 49% 30.24 in 10.0 mi Variable 3.5 mph - N/A   Clear
11:52 AM 84.9 °F 85.4 °F 62.1 °F 46% 30.24 in 10.0 mi Variable 4.6 mph - N/A   Clear
12:52 PM 87.1 °F 87.8 °F 63.0 °F 44% 30.23 in 9.0 mi South 8.1 mph - N/A   Partly Cloudy
1:52 PM 88.0 °F 89.3 °F 64.0 °F 45% 30.22 in 10.0 mi Variable 6.9 mph - N/A   Partly Cloudy
2:52 PM 89.1 °F 90.3 °F 64.0 °F 43% 30.21 in 10.0 mi South 8.1 mph - N/A   Scattered Clouds
3:52 PM 90.0 °F 91.7 °F 64.9 °F 43% 30.20 in 10.0 mi SE 8.1 mph 16.1 mph N/A   Scattered Clouds
4:52 PM 90.0 °F 91.7 °F 64.9 °F 43% 30.19 in 10.0 mi South 8.1 mph - N/A   Scattered Clouds
5:52 PM 91.0 °F 93.0 °F 64.9 °F 42% 30.19 in 10.0 mi SE 11.5 mph 18.4 mph N/A   Scattered Clouds
6:52 PM 90.0 °F 91.7 °F 64.9 °F 43% 30.19 in 10.0 mi SSE 9.2 mph - N/A   Partly Cloudy
7:52 PM 88.0 °F 89.6 °F 64.9 °F 46% 30.19 in 10.0 mi South 12.7 mph - N/A   Partly Cloudy
8:52 PM 87.1 °F 88.9 °F 64.9 °F 48% 30.19 in 10.0 mi South 9.2 mph - N/A   Clear
9:52 PM 82.0 °F 84.9 °F 68.0 °F 62% 30.22 in 10.0 mi ESE 4.6 mph - N/A   Clear
10:52 PM 80.1 °F 82.7 °F 68.0 °F 67% 30.22 in 10.0 mi Calm Calm - N/A   Clear
11:52 PM 80.1 °F 82.9 °F 69.1 °F 69% 30.23 in 10.0 mi SE 3.5 mph - N/A   Clear